This is the latest recevied weather packets stored in our database for station/object 7L2IWN-13. If no packets are shown the sender has not sent any weather packets the latest 10 day(s).
| Time | Temp. | Humidity | Pressure | Rain* | Wind** | Luminosity | Snow |
|---|---|---|---|---|---|---|---|
| 1778064725 | 15° C | 89% | 1017.1 hPa | 0 mm | - | - | - |
| 1778064005 | 15° C | 89% | 1017.1 hPa | 0 mm | - | - | - |
| 1778063286 | 15.56° C | 86% | 1017.3 hPa | 0 mm | - | - | - |
| 1778062566 | 15.56° C | 86% | 1017.4 hPa | 0 mm | - | - | - |
| 1778061845 | 16.11° C | 87% | 1017 hPa | 0 mm | - | - | - |
| 1778061125 | 16.11° C | 86% | 1016.8 hPa | 0 mm | - | - | - |
| 1778060405 | 16.67° C | 84% | 1016.5 hPa | 0 mm | - | - | - |
| 1778059686 | 16.67° C | 82% | 1016.6 hPa | 0 mm | - | - | - |
| 1778058964 | 16.67° C | 83% | 1017 hPa | 0 mm | - | - | - |
| 1778058244 | 17.22° C | 80% | 1016.5 hPa | 0 mm | - | - | - |
| 1778057525 | 17.78° C | 79% | 1016.8 hPa | 0 mm | - | - | - |
| 1778056805 | 18.33° C | 76% | 1016.8 hPa | 0 mm | - | - | - |
| 1778056085 | 18.33° C | 77% | 1016.4 hPa | 0 mm | - | - | - |
| 1778054645 | 18.33° C | 74% | 1017.1 hPa | 0 mm | - | - | - |
| 1778053926 | 18.33° C | 72% | 1017.1 hPa | 0 mm | - | - | - |
| 1778053208 | 19.44° C | 69% | 1017.1 hPa | 0 mm | - | - | - |
| 1778051764 | 18.89° C | 70% | 1016.8 hPa | 0 mm | - | - | - |
| 1778051046 | 18.89° C | 69% | 1016.9 hPa | 0 mm | - | - | - |
| 1778050325 | 19.44° C | 69% | 1017 hPa | 0 mm | - | - | - |
| 1778049605 | 19.44° C | 68% | 1017.1 hPa | 0 mm | - | - | - |
| 1778048885 | 18.89° C | 69% | 1017.1 hPa | 0 mm | - | - | - |
| 1778048165 | 19.44° C | 67% | 1017.4 hPa | 0 mm | - | - | - |
| 1778047445 | 18.89° C | 68% | 1017.2 hPa | 0 mm | - | - | - |
| 1778046725 | 18.89° C | 68% | 1017.5 hPa | 0 mm | - | - | - |
| 1778046005 | 18.33° C | 68% | 1017.2 hPa | 0 mm | - | - | - |
* Rain latest hour (hover to see other rain measurements)
** Current wind speed in m/s (hover to see current wind gust speed)